Time,TemperatureF,DewpointF,PressureIn,WindDirection,WindDirectionDegrees,WindSpeedMPH,WindSpeedGustMPH,Humidity,HourlyPrecipIn,Conditions,Clouds,dailyrainin,SoftwareType,DateUTC
2013-09-13 00:00:00,56.3,45.9,29.90,NW,315,1.0,11.0,68,0.00,,---,0.00,VWS V14.01,2013-09-13 07:00:00,
2013-09-13 00:30:00,55.8,45.4,29.89,NW,315,0.0,10.0,68,0.00,,---,0.00,VWS V14.01,2013-09-13 07:30:00,
2013-09-13 01:00:00,55.4,45.0,29.89,SE,135,2.0,11.0,68,0.00,,---,0.00,VWS V14.01,2013-09-13 08:00:00,
2013-09-13 01:30:00,55.7,45.3,29.88,SSE,158,2.0,13.0,68,0.00,,---,0.00,VWS V14.01,2013-09-13 08:30:00,
2013-09-13 02:00:00,55.7,45.3,29.89,SE,135,2.0,12.0,68,0.00,,---,0.00,VWS V14.01,2013-09-13 09:00:00,
2013-09-13 02:30:00,55.3,44.9,29.89,NW,315,2.0,18.0,68,0.00,,---,0.00,VWS V14.01,2013-09-13 09:30:00,
2013-09-13 03:00:00,55.3,44.9,29.88,NW,315,3.0,20.0,68,0.01,,---,0.01,VWS V14.01,2013-09-13 10:00:00,
2013-09-13 03:30:00,55.2,44.8,29.87,SSE,158,1.0,12.0,68,0.01,,---,0.01,VWS V14.01,2013-09-13 10:30:00,
2013-09-13 04:00:00,55.0,44.7,29.86,NW,315,3.0,17.0,68,0.01,,---,0.01,VWS V14.01,2013-09-13 11:00:00,
2013-09-13 04:30:00,54.9,44.5,29.86,NW,315,9.0,20.0,68,0.00,,---,0.01,VWS V14.01,2013-09-13 11:30:00,
2013-09-13 05:00:00,54.9,44.5,29.86,NW,315,13.0,22.0,68,0.00,,---,0.01,VWS V14.01,2013-09-13 12:00:00,
2013-09-13 05:30:00,54.7,44.7,29.87,NW,315,6.0,20.0,69,0.00,,---,0.01,VWS V14.01,2013-09-13 12:30:00,
2013-09-13 06:00:00,54.3,44.4,29.87,NW,315,3.0,20.0,69,0.00,,---,0.01,VWS V14.01,2013-09-13 13:00:00,
2013-09-13 06:30:00,53.8,43.9,29.87,NW,315,7.0,16.0,69,0.00,,---,0.01,VWS V14.01,2013-09-13 13:30:00,
2013-09-13 07:00:00,53.7,43.8,29.88,NW,315,11.0,20.0,69,0.00,,---,0.01,VWS V14.01,2013-09-13 14:00:00,
2013-09-13 07:30:00,53.6,43.7,29.87,NW,315,11.0,21.0,69,0.00,,---,0.01,VWS V14.01,2013-09-13 14:30:00,
2013-09-13 08:00:00,53.4,43.5,29.87,NW,315,15.0,22.0,69,0.00,,---,0.01,VWS V14.01,2013-09-13 15:00:00,
2013-09-13 08:30:00,53.4,43.5,29.88,NW,315,13.0,21.0,69,0.00,,---,0.01,VWS V14.01,2013-09-13 15:30:00,
2013-09-13 09:00:00,53.4,43.5,29.87,NW,315,15.0,22.0,69,0.00,,---,0.01,VWS V14.01,2013-09-13 16:00:00,
2013-09-13 09:03:00,53.4,43.5,29.88,WNW,302,14.0,16.0,69,0.00,,---,0.01,VWS V14.01,2013-09-13 16:03:00,
2013-09-13 09:08:00,53.6,43.7,29.88,NW,322,4.0,19.0,69,0.00,,---,0.01,VWS V14.01,2013-09-13 16:08:00,
2013-09-13 09:13:00,54.0,44.1,29.88,North,360,5.0,19.0,69,0.00,,---,0.01,VWS V14.01,2013-09-13 16:13:00,
2013-09-13 09:18:00,54.2,44.3,29.88,WNW,302,2.0,19.0,69,0.00,,---,0.01,VWS V14.01,2013-09-13 16:18:00,
2013-09-13 09:23:00,54.2,44.3,29.88,WNW,288,3.0,19.0,69,0.00,,---,0.01,VWS V14.01,2013-09-13 16:23:00,
2013-09-13 09:28:00,54.2,44.3,29.88,NNE,17,2.0,19.0,69,0.00,,---,0.01,VWS V14.01,2013-09-13 16:28:00,
2013-09-13 09:30:00,54.2,44.3,29.88,North,360,0.0,19.0,69,0.00,,---,0.01,VWS V14.01,2013-09-13 16:30:00,
2013-09-13 09:33:00,54.1,44.2,29.88,West,279,4.0,13.0,69,0.00,,---,0.01,VWS V14.01,2013-09-13 16:33:00,
2013-09-13 09:38:00,54.2,44.3,29.88,NW,315,4.0,13.0,69,0.00,,---,0.01,VWS V14.01,2013-09-13 16:38:00,
2013-09-13 09:43:00,54.3,44.4,29.88,NW,313,3.0,13.0,69,0.00,,---,0.01,VWS V14.01,2013-09-13 16:43:00,
2013-09-13 09:48:00,54.2,44.3,29.88,WNW,287,9.0,15.0,69,0.00,,---,0.01,VWS V14.01,2013-09-13 16:48:00,
2013-09-13 09:53:00,54.4,44.5,29.89,NW,308,7.0,15.0,69,0.00,,---,0.01,VWS V14.01,2013-09-13 16:53:00,
2013-09-13 09:58:00,54.5,44.5,29.88,NW,306,4.0,15.0,69,0.00,,---,0.01,VWS V14.01,2013-09-13 16:58:00,
2013-09-13 10:00:00,54.5,44.5,29.88,WNW,284,4.0,15.0,69,0.00,,---,0.01,VWS V14.01,2013-09-13 17:00:00,
2013-09-13 10:03:00,54.5,44.5,29.88,NW,314,6.0,16.0,69,0.00,,---,0.01,VWS V14.01,2013-09-13 17:03:00,
2013-09-13 10:08:00,54.9,44.9,29.88,WNW,303,9.0,16.0,69,0.00,,---,0.01,VWS V14.01,2013-09-13 17:08:00,
2013-09-13 10:13:00,54.8,44.8,29.88,NW,310,5.0,16.0,69,0.00,,---,0.01,VWS V14.01,2013-09-13 17:13:00,
2013-09-13 10:18:00,54.9,44.9,29.88,NW,313,6.0,18.0,69,0.00,,---,0.01,VWS V14.01,2013-09-13 17:18:00,
2013-09-13 10:23:00,55.0,44.7,29.88,NNW,336,15.0,18.0,68,0.00,,---,0.01,VWS V14.01,2013-09-13 17:23:00,
2013-09-13 10:28:00,55.1,44.7,29.88,NW,312,11.0,18.0,68,0.00,,---,0.01,VWS V14.01,2013-09-13 17:28:00,
2013-09-13 10:30:00,55.1,44.7,29.88,NW,312,11.0,18.0,68,0.00,,---,0.01,VWS V14.01,2013-09-13 17:30:00,
2013-09-13 10:33:00,55.2,44.8,29.88,NW,306,8.0,17.0,68,0.00,,---,0.01,VWS V14.01,2013-09-13 17:33:00,
2013-09-13 10:38:00,55.3,44.9,29.88,NW,317,14.0,17.0,68,0.00,,---,0.01,VWS V14.01,2013-09-13 17:38:00,
2013-09-13 10:43:00,55.3,44.9,29.88,NW,323,13.0,17.0,68,0.00,,---,0.01,VWS V14.01,2013-09-13 17:43:00,
2013-09-13 10:48:00,55.4,45.0,29.88,NW,314,10.0,21.0,68,0.00,,---,0.01,VWS V14.01,2013-09-13 17:48:00,
2013-09-13 10:53:00,55.3,44.9,29.88,North,360,7.0,21.0,68,0.00,,---,0.01,VWS V14.01,2013-09-13 17:53:00,
2013-09-13 10:58:00,55.7,45.3,29.87,NW,324,14.0,16.0,68,0.00,,---,0.01,VWS V14.01,2013-09-13 17:58:00,
2013-09-13 11:00:00,55.7,45.3,29.88,NW,309,12.0,21.0,68,0.00,,---,0.01,VWS V14.01,2013-09-13 18:00:00,
2013-09-13 11:03:00,55.4,45.0,29.87,NW,313,16.0,21.0,68,0.00,,---,0.01,VWS V14.01,2013-09-13 18:03:00,
2013-09-13 11:09:00,55.5,45.1,29.87,North,360,13.0,21.0,68,0.00,,---,0.01,VWS V14.01,2013-09-13 18:09:00,
2013-09-13 11:14:00,55.6,45.2,29.87,NW,312,15.0,21.0,68,0.00,,---,0.01,VWS V14.01,2013-09-13 18:14:00,
2013-09-13 11:19:00,55.6,45.2,29.87,WNW,303,6.0,21.0,68,0.00,,---,0.01,VWS V14.01,2013-09-13 18:19:00,
2013-09-13 11:24:00,55.8,45.4,29.87,NW,315,13.0,21.0,68,0.00,,---,0.01,VWS V14.01,2013-09-13 18:24:00,
2013-09-13 11:29:00,56.0,45.6,29.87,NW,309,9.0,10.0,68,0.00,,---,0.01,VWS V14.01,2013-09-13 18:29:00,
2013-09-13 11:30:00,55.9,45.5,29.87,WNW,288,0.0,21.0,68,0.00,,---,0.01,VWS V14.01,2013-09-13 18:30:00,
2013-09-13 11:34:00,56.1,45.7,29.87,NW,319,11.0,17.0,68,0.00,,---,0.01,VWS V14.01,2013-09-13 18:34:00,
2013-09-13 11:39:00,56.2,45.8,29.87,NW,317,11.0,17.0,68,0.00,,---,0.01,VWS V14.01,2013-09-13 18:39:00,
2013-09-13 11:44:00,56.5,46.1,29.86,NW,323,13.0,17.0,68,0.00,,---,0.01,VWS V14.01,2013-09-13 18:44:00,
2013-09-13 11:49:00,56.8,46.4,29.86,NW,313,9.0,17.0,68,0.00,,---,0.01,VWS V14.01,2013-09-13 18:49:00,
2013-09-13 11:54:00,56.7,46.3,29.86,NW,317,11.0,17.0,68,0.00,,---,0.01,VWS V14.01,2013-09-13 18:54:00,
2013-09-13 11:59:00,57.0,46.6,29.86,NW,321,12.0,12.0,68,0.00,,---,0.01,VWS V14.01,2013-09-13 18:59:00,
2013-09-13 12:00:00,56.9,46.5,29.86,NW,313,8.0,17.0,68,0.00,,---,0.01,VWS V14.01,2013-09-13 19:00:00,
2013-09-13 12:04:00,56.9,46.5,29.86,WNW,288,2.0,15.0,68,0.00,,---,0.01,VWS V14.01,2013-09-13 19:04:00,
2013-09-13 12:09:00,56.8,46.4,29.86,NW,313,3.0,17.0,68,0.00,,---,0.01,VWS V14.01,2013-09-13 19:09:00,
2013-09-13 12:14:00,57.1,46.7,29.86,NW,314,8.0,17.0,68,0.00,,---,0.01,VWS V14.01,2013-09-13 19:14:00,
2013-09-13 12:19:00,56.8,46.8,29.86,NNW,330,11.0,18.0,69,0.00,,---,0.01,VWS V14.01,2013-09-13 19:19:00,
2013-09-13 12:24:00,57.1,47.4,29.86,North,360,10.0,18.0,70,0.00,,---,0.01,VWS V14.01,2013-09-13 19:24:00,
2013-09-13 12:29:00,57.2,47.9,29.85,NW,307,16.0,18.0,71,0.00,,---,0.01,VWS V14.01,2013-09-13 19:29:00,
2013-09-13 12:30:00,57.2,47.9,29.86,NW,315,15.0,18.0,71,0.00,,---,0.01,VWS V14.01,2013-09-13 19:30:00,
2013-09-13 12:34:00,57.1,48.5,29.85,NW,321,10.0,19.0,73,0.00,,---,0.01,VWS V14.01,2013-09-13 19:34:00,
2013-09-13 12:39:00,57.3,49.1,29.85,NNW,327,16.0,19.0,74,0.00,,---,0.01,VWS V14.01,2013-09-13 19:39:00,
2013-09-13 12:44:00,57.3,49.8,29.85,NW,306,14.0,20.0,76,0.00,,---,0.01,VWS V14.01,2013-09-13 19:44:00,
2013-09-13 12:49:00,57.8,50.3,29.85,NW,306,10.0,20.0,76,0.00,,---,0.01,VWS V14.01,2013-09-13 19:49:00,
2013-09-13 12:54:00,57.6,51.5,29.85,NW,323,12.0,20.0,80,0.00,,---,0.01,VWS V14.01,2013-09-13 19:54:00,
2013-09-13 12:59:00,57.5,51.4,29.84,NW,319,15.0,21.0,80,0.00,,---,0.01,VWS V14.01,2013-09-13 19:59:00,
2013-09-13 13:00:00,57.5,51.4,29.85,NNW,329,13.0,21.0,80,0.00,,---,0.01,VWS V14.01,2013-09-13 20:00:00,
2013-09-13 13:04:00,57.8,51.7,29.84,NNW,328,16.0,21.0,80,0.00,,---,0.01,VWS V14.01,2013-09-13 20:04:00,
2013-09-13 13:09:00,57.7,51.9,29.84,NW,322,16.0,22.0,81,0.00,,---,0.01,VWS V14.01,2013-09-13 20:09:00,
2013-09-13 13:14:00,57.7,51.9,29.84,NW,317,15.0,22.0,81,0.00,,---,0.01,VWS V14.01,2013-09-13 20:14:00,
2013-09-13 13:19:00,57.7,51.9,29.84,NW,306,20.0,22.0,81,0.00,,---,0.01,VWS V14.01,2013-09-13 20:19:00,
2013-09-13 13:25:00,57.6,51.8,29.84,NW,304,18.0,23.0,81,0.00,,---,0.01,VWS V14.01,2013-09-13 20:25:00,
2013-09-13 13:30:00,57.8,52.0,29.83,NNW,331,16.0,20.0,81,0.00,,---,0.01,VWS V14.01,2013-09-13 20:30:00,
2013-09-13 13:35:00,57.8,52.3,29.83,NW,320,20.0,23.0,82,0.00,,---,0.01,VWS V14.01,2013-09-13 20:35:00,
2013-09-13 13:40:00,57.5,52.1,29.83,NW,310,21.0,26.0,82,0.00,,---,0.01,VWS V14.01,2013-09-13 20:40:00,
2013-09-13 13:45:00,57.2,51.4,29.82,NW,321,21.0,26.0,81,0.00,,---,0.01,VWS V14.01,2013-09-13 20:45:00,
2013-09-13 13:50:00,57.3,51.2,29.82,NW,318,24.0,26.0,80,0.00,,---,0.01,VWS V14.01,2013-09-13 20:50:00,
2013-09-13 13:55:00,57.4,51.3,29.82,NW,315,16.0,26.0,80,0.00,,---,0.01,VWS V14.01,2013-09-13 20:55:00,
2013-09-13 14:00:00,57.7,52.2,29.81,NNW,334,20.0,26.0,82,0.00,,---,0.01,VWS V14.01,2013-09-13 21:00:00,
2013-09-13 14:05:00,57.5,51.7,29.81,NW,326,19.0,27.0,81,0.00,,---,0.01,VWS V14.01,2013-09-13 21:05:00,
2013-09-13 14:10:00,57.3,51.2,29.80,NW,311,15.0,27.0,80,0.00,,---,0.01,VWS V14.01,2013-09-13 21:10:00,
2013-09-13 14:15:00,57.2,51.1,29.80,NW,318,26.0,29.0,80,0.00,,---,0.01,VWS V14.01,2013-09-13 21:15:00,
2013-09-13 14:20:00,57.1,50.7,29.80,NW,318,21.0,30.0,79,0.00,,---,0.01,VWS V14.01,2013-09-13 21:20:00,
2013-09-13 14:25:00,56.9,50.1,29.80,WNW,303,24.0,31.0,78,0.00,,---,0.01,VWS V14.01,2013-09-13 21:25:00,
2013-09-13 14:30:00,56.7,49.9,29.80,NNW,327,24.0,28.0,78,0.00,,---,0.01,VWS V14.01,2013-09-13 21:30:00,
2013-09-13 14:35:00,56.8,49.7,29.80,NW,315,24.0,32.0,77,0.00,,---,0.01,VWS V14.01,2013-09-13 21:35:00,
2013-09-13 14:40:00,56.8,49.7,29.79,NW,312,19.0,32.0,77,0.00,,---,0.01,VWS V14.01,2013-09-13 21:40:00,
2013-09-13 14:45:00,56.8,49.3,29.79,NNW,344,17.0,32.0,76,0.00,,---,0.01,VWS V14.01,2013-09-13 21:45:00,
2013-09-13 14:50:00,56.9,49.4,29.80,NNW,329,22.0,32.0,76,0.00,,---,0.01,VWS V14.01,2013-09-13 21:50:00,
2013-09-13 14:55:00,57.1,49.6,29.80,NW,315,26.0,32.0,76,0.00,,---,0.01,VWS V14.01,2013-09-13 21:55:00,
2013-09-13 15:00:00,57.1,50.0,29.80,NW,313,22.0,26.0,77,0.00,,---,0.01,VWS V14.01,2013-09-13 22:00:00,
2013-09-13 15:05:00,56.9,49.8,29.80,NW,325,16.0,28.0,77,0.00,,---,0.01,VWS V14.01,2013-09-13 22:05:00,
2013-09-13 15:10:00,56.8,49.7,29.80,NW,315,14.0,28.0,77,0.00,,---,0.01,VWS V14.01,2013-09-13 22:10:00,
2013-09-13 15:15:00,56.7,49.6,29.79,NW,315,23.0,28.0,77,0.00,,---,0.01,VWS V14.01,2013-09-13 22:15:00,
2013-09-13 15:20:00,56.6,49.5,29.80,NW,310,17.0,32.0,77,0.00,,---,0.01,VWS V14.01,2013-09-13 22:20:00,
2013-09-13 15:25:00,56.6,49.1,29.79,NW,317,20.0,32.0,76,0.00,,---,0.01,VWS V14.01,2013-09-13 22:25:00,
2013-09-13 15:30:00,56.6,48.8,29.79,NW,308,21.0,28.0,75,0.00,,---,0.01,VWS V14.01,2013-09-13 22:30:00,
2013-09-13 15:35:00,56.4,48.6,29.79,North,355,15.0,29.0,75,0.00,,---,0.01,VWS V14.01,2013-09-13 22:35:00,
2013-09-13 15:40:00,56.4,48.6,29.79,NW,319,20.0,29.0,75,0.00,,---,0.01,VWS V14.01,2013-09-13 22:40:00,
2013-09-13 15:45:00,56.4,48.2,29.79,NW,311,11.0,29.0,74,0.00,,---,0.01,VWS V14.01,2013-09-13 22:45:00,
2013-09-13 15:50:00,56.3,48.1,29.79,NW,319,20.0,29.0,74,0.00,,---,0.01,VWS V14.01,2013-09-13 22:50:00,
2013-09-13 15:55:00,56.4,47.9,29.78,NW,305,13.0,29.0,73,0.00,,---,0.01,VWS V14.01,2013-09-13 22:55:00,
2013-09-13 16:00:00,56.4,47.9,29.78,NNW,328,13.0,23.0,73,0.00,,---,0.01,VWS V14.01,2013-09-13 23:00:00,
2013-09-13 16:05:00,56.3,48.1,29.77,NW,321,19.0,26.0,74,0.00,,---,0.01,VWS V14.01,2013-09-13 23:05:00,
2013-09-13 16:11:00,56.4,47.9,29.77,NW,304,13.0,26.0,73,0.00,,---,0.01,VWS V14.01,2013-09-13 23:11:00,
2013-09-13 16:16:00,56.3,47.8,29.77,NW,315,15.0,26.0,73,0.00,,---,0.01,VWS V14.01,2013-09-13 23:16:00,
2013-09-13 16:21:00,56.4,47.9,29.77,NW,314,20.0,29.0,73,0.00,,---,0.01,VWS V14.01,2013-09-13 23:21:00,
2013-09-13 16:26:00,56.4,47.5,29.77,NW,320,16.0,29.0,72,0.00,,---,0.01,VWS V14.01,2013-09-13 23:26:00,
2013-09-13 16:30:00,56.3,47.4,29.77,West,277,23.0,29.0,72,0.00,,---,0.01,VWS V14.01,2013-09-13 23:30:00,
2013-09-13 16:31:00,56.4,47.5,29.77,NW,315,16.0,25.0,72,0.00,,---,0.01,VWS V14.01,2013-09-13 23:31:00,
2013-09-13 16:36:00,56.2,47.3,29.76,NW,309,16.0,32.0,72,0.00,,---,0.01,VWS V14.01,2013-09-13 23:36:00,
2013-09-13 16:41:00,56.2,47.3,29.77,NW,318,16.0,32.0,72,0.00,,---,0.01,VWS V14.01,2013-09-13 23:41:00,
2013-09-13 16:46:00,56.2,47.3,29.76,NNW,327,16.0,32.0,72,0.00,,---,0.01,VWS V14.01,2013-09-13 23:46:00,
2013-09-13 16:51:00,56.1,47.2,29.76,WNW,303,17.0,32.0,72,0.00,,---,0.01,VWS V14.01,2013-09-13 23:51:00,
2013-09-13 16:56:00,56.2,47.3,29.76,NW,316,15.0,32.0,72,0.00,,---,0.01,VWS V14.01,2013-09-13 23:56:00,
2013-09-13 17:00:00,56.2,47.3,29.77,NW,314,15.0,32.0,72,0.00,,---,0.01,VWS V14.01,2013-09-14 00:00:00,
2013-09-13 17:01:00,56.2,47.3,29.76,NNW,340,11.0,27.0,72,0.00,,---,0.01,VWS V14.01,2013-09-14 00:01:00,
2013-09-13 17:06:00,56.0,47.5,29.76,NW,322,14.0,29.0,73,0.00,,---,0.01,VWS V14.01,2013-09-14 00:06:00,
2013-09-13 17:11:00,55.8,47.3,29.76,NW,319,14.0,29.0,73,0.00,,---,0.01,VWS V14.01,2013-09-14 00:11:00,
2013-09-13 17:16:00,55.8,46.9,29.76,NW,323,14.0,29.0,72,0.00,,---,0.01,VWS V14.01,2013-09-14 00:16:00,
2013-09-13 17:21:00,55.8,46.9,29.76,NW,317,21.0,29.0,72,0.00,,---,0.01,VWS V14.01,2013-09-14 00:21:00,
2013-09-13 17:26:00,55.6,46.7,29.76,NW,304,14.0,29.0,72,0.00,,---,0.01,VWS V14.01,2013-09-14 00:26:00,
2013-09-13 17:30:00,55.6,46.7,29.76,NW,313,23.0,29.0,72,0.00,,---,0.01,VWS V14.01,2013-09-14 00:30:00,
2013-09-13 17:31:00,55.5,46.6,29.76,NNW,337,17.0,24.0,72,0.00,,---,0.01,VWS V14.01,2013-09-14 00:31:00,
2013-09-13 17:36:00,55.6,46.7,29.76,NW,320,18.0,26.0,72,0.00,,---,0.01,VWS V14.01,2013-09-14 00:36:00,
2013-09-13 17:41:00,55.5,46.6,29.76,NW,322,14.0,28.0,72,0.00,,---,0.01,VWS V14.01,2013-09-14 00:41:00,
2013-09-13 17:46:00,55.5,46.6,29.76,WNW,287,14.0,28.0,72,0.00,,---,0.01,VWS V14.01,2013-09-14 00:46:00,
2013-09-13 17:51:00,55.6,46.4,29.75,NNW,333,16.0,28.0,71,0.00,,---,0.01,VWS V14.01,2013-09-14 00:51:00,
2013-09-13 17:56:00,55.5,46.3,29.75,NNW,329,23.0,29.0,71,0.00,,---,0.01,VWS V14.01,2013-09-14 00:56:00,
2013-09-13 18:00:00,55.4,46.2,29.75,NW,321,16.0,29.0,71,0.00,,---,0.01,VWS V14.01,2013-09-14 01:00:00,
2013-09-13 18:01:00,55.4,46.2,29.75,NW,307,18.0,24.0,71,0.00,,---,0.01,VWS V14.01,2013-09-14 01:01:00,
2013-09-13 18:06:00,55.4,46.2,29.75,NW,317,13.0,26.0,71,0.00,,---,0.01,VWS V14.01,2013-09-14 01:06:00,
2013-09-13 18:11:00,55.3,46.1,29.75,WNW,303,14.0,28.0,71,0.00,,---,0.01,VWS V14.01,2013-09-14 01:11:00,
2013-09-13 18:16:00,55.3,46.1,29.75,WNW,303,16.0,28.0,71,0.00,,---,0.01,VWS V14.01,2013-09-14 01:16:00,
2013-09-13 18:22:00,55.1,45.9,29.75,WNW,284,19.0,28.0,71,0.00,,---,0.01,VWS V14.01,2013-09-14 01:22:00,
2013-09-13 18:27:00,55.1,45.5,29.75,NW,324,19.0,29.0,70,0.00,,---,0.01,VWS V14.01,2013-09-14 01:27:00,
2013-09-13 18:30:00,55.1,45.5,29.75,North,360,19.0,29.0,70,0.00,,---,0.01,VWS V14.01,2013-09-14 01:30:00,
2013-09-13 18:32:00,55.1,45.5,29.74,NW,314,18.0,28.0,70,0.00,,---,0.01,VWS V14.01,2013-09-14 01:32:00,
2013-09-13 18:37:00,55.1,45.5,29.75,NW,304,17.0,28.0,70,0.00,,---,0.01,VWS V14.01,2013-09-14 01:37:00,
2013-09-13 18:42:00,55.0,45.4,29.75,NW,311,21.0,28.0,70,0.00,,---,0.01,VWS V14.01,2013-09-14 01:42:00,
2013-09-13 18:47:00,55.0,45.4,29.75,NW,323,20.0,28.0,70,0.00,,---,0.01,VWS V14.01,2013-09-14 01:47:00,
2013-09-13 18:52:00,55.0,45.4,29.75,NW,326,20.0,29.0,70,0.00,,---,0.01,VWS V14.01,2013-09-14 01:52:00,
2013-09-13 18:57:00,55.0,45.4,29.75,NW,325,26.0,29.0,70,0.00,,---,0.01,VWS V14.01,2013-09-14 01:57:00,
2013-09-13 19:00:00,55.0,45.4,29.74,NW,316,17.0,29.0,70,0.00,,---,0.01,VWS V14.01,2013-09-14 02:00:00,
2013-09-13 19:02:00,55.0,45.4,29.74,NW,323,15.0,28.0,70,0.00,,---,0.01,VWS V14.01,2013-09-14 02:02:00,
2013-09-13 19:07:00,55.1,45.1,29.75,NW,313,23.0,28.0,69,0.00,,---,0.01,VWS V14.01,2013-09-14 02:07:00,
2013-09-13 19:12:00,55.1,45.1,29.74,NW,307,19.0,32.0,69,0.00,,---,0.01,VWS V14.01,2013-09-14 02:12:00,
2013-09-13 19:17:00,55.1,45.1,29.75,NW,321,24.0,32.0,69,0.00,,---,0.01,VWS V14.01,2013-09-14 02:17:00,
2013-09-13 19:22:00,55.1,45.1,29.75,NNW,333,21.0,32.0,69,0.00,,---,0.01,VWS V14.01,2013-09-14 02:22:00,
2013-09-13 19:27:00,55.2,45.2,29.74,NW,319,16.0,32.0,69,0.00,,---,0.01,VWS V14.01,2013-09-14 02:27:00,
2013-09-13 19:30:00,55.1,45.1,29.74,NNW,334,19.0,32.0,69,0.00,,---,0.01,VWS V14.01,2013-09-14 02:30:00,
2013-09-13 19:32:00,55.1,45.1,29.74,NNW,327,18.0,30.0,69,0.00,,---,0.01,VWS V14.01,2013-09-14 02:32:00,
2013-09-13 19:37:00,55.1,45.1,29.74,NNW,334,21.0,30.0,69,0.00,,---,0.01,VWS V14.01,2013-09-14 02:37:00,
2013-09-13 19:42:00,55.1,45.1,29.75,NNW,334,20.0,30.0,69,0.00,,---,0.01,VWS V14.01,2013-09-14 02:42:00,
2013-09-13 19:47:00,55.1,45.1,29.74,NW,320,9.0,30.0,69,0.00,,---,0.01,VWS V14.01,2013-09-14 02:47:00,
2013-09-13 19:52:00,55.1,45.1,29.74,NW,315,19.0,30.0,69,0.00,,---,0.01,VWS V14.01,2013-09-14 02:52:00,
2013-09-13 19:57:00,55.0,45.0,29.74,NW,324,22.0,30.0,69,0.00,,---,0.01,VWS V14.01,2013-09-14 02:57:00,
2013-09-13 20:00:00,55.0,45.0,29.74,NW,313,23.0,30.0,69,0.00,,---,0.01,VWS V14.01,2013-09-14 03:00:00,
2013-09-13 20:02:00,55.0,45.0,29.74,West,279,18.0,28.0,69,0.00,,---,0.01,VWS V14.01,2013-09-14 03:02:00,
2013-09-13 20:07:00,54.9,44.9,29.75,NW,313,21.0,28.0,69,0.00,,---,0.01,VWS V14.01,2013-09-14 03:07:00,
2013-09-13 20:12:00,54.8,44.8,29.75,NW,307,19.0,30.0,69,0.00,,---,0.01,VWS V14.01,2013-09-14 03:12:00,
2013-09-13 20:17:00,54.8,44.8,29.75,NW,308,20.0,30.0,69,0.00,,---,0.01,VWS V14.01,2013-09-14 03:17:00,
2013-09-13 20:22:00,54.7,44.7,29.75,WNW,303,19.0,30.0,69,0.00,,---,0.01,VWS V14.01,2013-09-14 03:22:00,
2013-09-13 20:27:00,54.7,44.7,29.75,NW,313,14.0,32.0,69,0.00,,---,0.01,VWS V14.01,2013-09-14 03:27:00,
2013-09-13 20:30:00,54.6,44.7,29.75,NW,325,16.0,32.0,69,0.00,,---,0.01,VWS V14.01,2013-09-14 03:30:00,
2013-09-13 20:32:00,54.6,44.7,29.76,NW,310,16.0,27.0,69,0.00,,---,0.01,VWS V14.01,2013-09-14 03:32:00,
2013-09-13 20:37:00,54.6,44.7,29.76,NNW,327,25.0,27.0,69,0.00,,---,0.01,VWS V14.01,2013-09-14 03:37:00,
2013-09-13 20:42:00,54.5,44.5,29.76,NNW,344,18.0,27.0,69,0.00,,---,0.01,VWS V14.01,2013-09-14 03:42:00,
2013-09-13 20:47:00,54.5,44.5,29.76,NW,326,19.0,27.0,69,0.00,,---,0.01,VWS V14.01,2013-09-14 03:47:00,
2013-09-13 20:52:00,54.4,44.5,29.76,NW,317,11.0,29.0,69,0.00,,---,0.01,VWS V14.01,2013-09-14 03:52:00,
2013-09-13 20:57:00,54.5,44.5,29.76,North,360,18.0,29.0,69,0.00,,---,0.01,VWS V14.01,2013-09-14 03:57:00,
2013-09-13 21:00:00,54.5,44.5,29.76,NNW,345,19.0,29.0,69,0.00,,---,0.01,VWS V14.01,2013-09-14 04:00:00,
2013-09-13 21:01:00,54.4,44.5,29.76,NW,317,20.0,28.0,69,0.00,,---,0.01,VWS V14.01,2013-09-14 04:01:00,
2013-09-13 21:03:00,54.4,44.5,29.76,NW,318,17.0,29.0,69,0.00,,---,0.01,VWS V14.01,2013-09-14 04:03:00,
2013-09-13 21:05:00,54.4,44.5,29.76,NNW,331,11.0,29.0,69,0.00,,---,0.01,VWS V14.01,2013-09-14 04:05:00,
2013-09-13 21:07:00,54.4,44.5,29.76,NNW,329,17.0,29.0,69,0.00,,---,0.01,VWS V14.01,2013-09-14 04:07:00,
2013-09-13 21:13:00,54.3,44.4,29.76,NW,316,22.0,30.0,69,0.00,,---,0.01,VWS V14.01,2013-09-14 04:13:00,
2013-09-13 21:18:00,54.3,44.4,29.76,NW,324,17.0,30.0,69,0.00,,---,0.01,VWS V14.01,2013-09-14 04:18:00,
2013-09-13 21:23:00,54.4,44.5,29.76,NW,319,20.0,30.0,69,0.00,,---,0.01,VWS V14.01,2013-09-14 04:23:00,
2013-09-13 21:28:00,54.4,44.5,29.76,NNW,333,29.0,33.0,69,0.00,,---,0.01,VWS V14.01,2013-09-14 04:28:00,
2013-09-13 21:30:00,54.4,44.5,29.76,NW,318,20.0,33.0,69,0.00,,---,0.01,VWS V14.01,2013-09-14 04:30:00,
2013-09-13 21:33:00,54.3,44.4,29.76,North,360,19.0,28.0,69,0.00,,---,0.01,VWS V14.01,2013-09-14 04:33:00,
2013-09-13 21:38:00,54.3,44.4,29.76,NNW,328,22.0,29.0,69,0.00,,---,0.01,VWS V14.01,2013-09-14 04:38:00,
2013-09-13 21:43:00,54.4,44.5,29.76,NW,326,28.0,32.0,69,0.00,,---,0.01,VWS V14.01,2013-09-14 04:43:00,
2013-09-13 21:48:00,54.4,44.5,29.76,NW,312,15.0,32.0,69,0.00,,---,0.01,VWS V14.01,2013-09-14 04:48:00,
2013-09-13 21:53:00,54.4,44.5,29.76,NW,318,20.0,32.0,69,0.00,,---,0.01,VWS V14.01,2013-09-14 04:53:00,
2013-09-13 21:58:00,54.3,44.4,29.76,NW,319,24.0,32.0,69,0.00,,---,0.01,VWS V14.01,2013-09-14 04:58:00,
2013-09-13 22:00:00,54.3,44.4,29.75,NW,325,19.0,32.0,69,0.00,,---,0.01,VWS V14.01,2013-09-14 05:00:00,
2013-09-13 22:03:00,54.3,44.4,29.76,NW,312,24.0,30.0,69,0.00,,---,0.01,VWS V14.01,2013-09-14 05:03:00,
2013-09-13 22:08:00,54.3,44.4,29.76,NW,315,26.0,30.0,69,0.00,,---,0.01,VWS V14.01,2013-09-14 05:08:00,
2013-09-13 22:13:00,54.3,44.4,29.76,NW,325,21.0,30.0,69,0.00,,---,0.01,VWS V14.01,2013-09-14 05:13:00,
2013-09-13 22:18:00,54.2,44.3,29.76,NW,315,22.0,30.0,69,0.00,,---,0.01,VWS V14.01,2013-09-14 05:18:00,
2013-09-13 22:23:00,54.3,44.4,29.76,NW,318,19.0,30.0,69,0.00,,---,0.01,VWS V14.01,2013-09-14 05:23:00,
2013-09-13 22:28:00,54.2,44.3,29.76,NW,323,16.0,30.0,69,0.00,,---,0.01,VWS V14.01,2013-09-14 05:28:00,
2013-09-13 22:30:00,54.2,44.3,29.77,NW,310,16.0,30.0,69,0.00,,---,0.01,VWS V14.01,2013-09-14 05:30:00,
2013-09-13 22:33:00,54.2,44.3,29.77,NNW,338,15.0,29.0,69,0.00,,---,0.01,VWS V14.01,2013-09-14 05:33:00,
2013-09-13 22:38:00,54.2,44.3,29.77,NW,317,17.0,29.0,69,0.00,,---,0.01,VWS V14.01,2013-09-14 05:38:00,
2013-09-13 22:43:00,54.1,44.2,29.77,NNW,347,22.0,29.0,69,0.00,,---,0.01,VWS V14.01,2013-09-14 05:43:00,
2013-09-13 22:48:00,54.1,44.2,29.77,NW,323,13.0,29.0,69,0.00,,---,0.01,VWS V14.01,2013-09-14 05:48:00,
2013-09-13 22:53:00,54.1,44.2,29.77,NNW,329,18.0,29.0,69,0.00,,---,0.01,VWS V14.01,2013-09-14 05:53:00,
2013-09-13 22:58:00,54.2,44.3,29.77,NW,311,17.0,29.0,69,0.00,,---,0.01,VWS V14.01,2013-09-14 05:58:00,
2013-09-13 23:00:00,54.2,44.3,29.77,WNW,303,17.0,29.0,69,0.00,,---,0.01,VWS V14.01,2013-09-14 06:00:00,
2013-09-13 23:03:00,54.2,44.3,29.76,NW,321,20.0,25.0,69,0.00,,---,0.01,VWS V14.01,2013-09-14 06:03:00,
2013-09-13 23:08:00,54.2,44.3,29.77,WSW,247,16.0,25.0,69,0.00,,---,0.01,VWS V14.01,2013-09-14 06:08:00,
2013-09-13 23:13:00,54.2,44.3,29.76,NW,314,12.0,30.0,69,0.00,,---,0.01,VWS V14.01,2013-09-14 06:13:00,
2013-09-13 23:18:00,54.2,44.3,29.77,NW,304,12.0,30.0,69,0.00,,---,0.01,VWS V14.01,2013-09-14 06:18:00,
2013-09-13 23:23:00,54.2,44.3,29.77,NNW,327,19.0,30.0,69,0.00,,---,0.01,VWS V14.01,2013-09-14 06:23:00,
2013-09-13 23:28:00,54.2,44.3,29.77,NW,319,16.0,17.0,69,0.00,,---,0.01,VWS V14.01,2013-09-14 06:28:00,
2013-09-13 23:30:00,54.2,44.3,29.77,North,360,17.0,30.0,69,0.00,,---,0.01,VWS V14.01,2013-09-14 06:30:00,
2013-09-13 23:33:00,54.2,44.3,29.77,NNW,334,13.0,28.0,69,0.00,,---,0.01,VWS V14.01,2013-09-14 06:33:00,
2013-09-13 23:38:00,54.1,44.2,29.76,NW,315,23.0,28.0,69,0.00,,---,0.01,VWS V14.01,2013-09-14 06:38:00,
2013-09-13 23:43:00,54.1,44.2,29.77,NW,313,24.0,28.0,69,0.00,,---,0.01,VWS V14.01,2013-09-14 06:43:00,
2013-09-13 23:48:00,54.1,44.2,29.77,NW,306,18.0,28.0,69,0.00,,---,0.01,VWS V14.01,2013-09-14 06:48:00,
2013-09-13 23:53:00,54.1,44.2,29.77,NW,320,21.0,28.0,69,0.00,,---,0.01,VWS V14.01,2013-09-14 06:53:00,
2013-09-13 23:59:00,54.1,44.2,29.76,North,360,13.0,19.0,69,0.00,,---,0.00,VWS V14.01,2013-09-14 06:59:00,